Miscellaneous Local Product
Issued by NWS North Platte, NE

Home | Current Version | Previous Version | Graphics & Text | Print | Product List | Glossary On
Versions: 1 2 3 4 5 6 7 8 9 10 11 12 13 14 15 16 17 18 19 20 21 22 23 24 25 26 27 28 29 30 31 32 33 34 35 36 37 38 39 40 41 42 43 44 45 46 47 48 49 50
000
AXUS43 KLBF 292010
MISLBF


WESTERN AND NORTH CENTRAL NEBRASKA HOURLY WEATHER ROUNDUP
NATIONAL WEATHER SERVICE NORTH PLATTE NE
300 PM CDT SAT AUG 29 2015

NOTE: "FAIR" INDICATES FEW OR NO CLOUDS BELOW 12,000 FEET WITH NO
SIGNIFICANT WEATHER AND/OR OBSTRUCTIONS TO VISIBILITY.

NOTE: STATIONS NOT REPORTING VARIABLES SUCH AS SKY/WEATHER OR
PRESSURE ARE PROVIDED BY THE NEBRASKA DEPARTMENT OF
ROADS...RAWS...AND APRS NETWORKS...AND ARE NOT UNDER
NATIONAL WEATHER SERVICE QUALITY CONTROL.

...OBSERVATIONS IN AND NEAR THE EASTERN PANHANDLE OF NEBRASKA...

CITY           SKY/WX    TMP DP  RH WIND       PRES   REMARKS
PINE RIDGE     SUNNY     94  44  17 S13       30.04F HX  90
CHADRON        SUNNY     95  41  15 S15G23    30.02F HAZE    HX  91
ALLIANCE       SUNNY     93  38  14 S12G18    30.10F
SIDNEY         SUNNY     91  32  12 SW12      30.16F
CRESCENT LAKE    N/A     94  39  14 S6G13       N/A  HX  90
BIG SPRINGS      N/A     91  46  20 S8          N/A
$$

...OBSERVATIONS IN NORTH CENTRAL NEBRASKA...

CITY           SKY/WX    TMP DP  RH WIND       PRES   REMARKS
VALENTINE      SUNNY     91  47  21 S8        30.04F
THEDFORD       MOSUNNY   90  54  29 S8        30.08F
AINSWORTH      SUNNY     89  53  29 SW8       30.05F
O`NEILL        MOSUNNY   84  62  47 S8        30.06S
ORD            MOSUNNY   85  61  44 CALM      30.06S
BROKEN BOW     PTSUNNY   86  59  39 S5        30.08F
SPRINGVIEW       N/A     89  62  40 SW5G12      N/A
SARGENT          N/A     85  60  43 CALM        N/A
CHAMBERS         N/A     87  62  43 S3          N/A
EWING            N/A     82  70  68 SE3         N/A
$$

...OBSERVATIONS IN SOUTHWEST NEBRASKA AND FAR NORTHEAST COLORADO...

CITY           SKY/WX    TMP DP  RH WIND       PRES   REMARKS
WRAY           FAIR      94  39  14 S8G18     30.14F HX  90
HOLYOKE        FAIR      93  52  24 S8        30.13F HX  90
IMPERIAL       SUNNY     92  47  21 S8        30.11F
OGALLALA       MOSUNNY   92  44  19 S9        30.10F
NORTH PLATTE   PTSUNNY   88  52  29 S5        30.09F
MCCOOK         SUNNY     91  48  22 CALM      30.09F
LEXINGTON      MOSUNNY   86  59  40 CALM      30.09F
PAXTON           N/A     89  56  32 S8          N/A
BRADY            N/A     85  65  50 CALM        N/A
CALLAWAY         N/A     84  70  63 SE6         N/A
$$

...OBSERVATIONS IN CENTRAL LINCOLN COUNTY AREA...

CITY           SKY/WX    TMP DP  RH WIND       PRES   REMARKS
N.P. AIRPORT   PTSUNNY   88  52  29 S5        30.09F
N.P. DOWNTOWN    N/A     90  54  29 CALM        N/A
N.P. SOUTHEAST   N/A     89  56  32 S5          N/A
$$

...SOME OBSERVATIONS FROM AROUND THE REGION...

CITY           SKY/WX    TMP DP  RH WIND       PRES   REMARKS
DENVER         MOSUNNY   89  38  16 S13       30.20F
LARAMIE        SUNNY     79  26  14 VRB6      30.32F
CHEYENNE       SUNNY     83  39  21 S13G23    30.25F
SCOTTSBLUFF    SUNNY     93  42  17 S12       30.09F
RAPID CITY     SUNNY     93  51  23 S13       29.99F HX  90
PIERRE         SUNNY     92  63  38 S13       29.92F HX  93
WINNER         FAIR      89  64  43 S8        29.99F HX  90
SIOUX FALLS    CLOUDY    71  62  73 S7        30.04F
OMAHA          CLOUDY    69  61  75 W5        30.07S
GRAND ISLAND   SUNNY     81  61  50 E7        30.09S
KANSAS CITY    CLOUDY    78  67  68 NW7       30.02F
WICHITA        CLOUDY    73  62  68 NE8       30.05F
HAYS           SUNNY     88  55  33 NE12      30.07F
LIBERAL        SUNNY     88  55  33 N12       30.13F
GOODLAND       SUNNY     89  38  16 VRB3      30.15F
$$



USA.gov is the U.S. government's official web portal to all federal, state and local government web resources and services.